{"data":{"norad_id":65515,"epoch":"2026-05-24T18:03:38.267136Z","epoch_age_seconds":92385,"freshness":"FRESH","line1":"1 65515U 25198Z   26144.75252624  .00012915  00000+0  44737-3 0  9992","line2":"2 65515  53.1620 277.8243 0001054  95.8769 264.2352 15.30202985 40269","mean_motion":15.30202985,"eccentricity":0.0001054,"inclination_deg":53.162,"raan_deg":277.8243,"arg_perigee_deg":95.8769,"mean_anomaly_deg":264.2352,"bstar":0.00044737,"rev_number":4026,"period_min":94.105162133114,"perigee_km":474.48381439314,"apogee_km":475.92849913058,"semimajor_km":6853.3431567619,"source":"CELESTRAK","updated_at":"2026-05-25T13:38:20.844667Z"}}